• In Deutschland
  • Länderverzeichnis
  • Für 7 Tage
  • Wassertemperatur
  • Satellitenkarten
  • Wetterkarte
  • Widgets
  • user-avatar
    Anmelden

    Stündliche Wetter Lübbecke

    Heute, 24 Oktober, Dienstag

    Zeit Temperatur Niederschläge Wind Luftdruck Luftfeuchtigkeit
    00:00 +9°C° 0 mm 3 m/S 750 mmHg 95%
    01:00 +9°C° 0 mm 2 m/S 751 mmHg 96%
    02:00 +9°C° 0 mm 2 m/S 751 mmHg 96%
    03:00 +9°C° 0 mm 2 m/S 751 mmHg 96%
    04:00 +9°C° 0 mm 2 m/S 751 mmHg 96%
    05:00 +9°C° 0 mm 2 m/S 751 mmHg 96%
    06:00 +9°C° 0 mm 3 m/S 751 mmHg 95%
    07:00 +9°C° 0 mm 3 m/S 751 mmHg 95%
    08:00 +10°C° 0,1 mm 3 m/S 751 mmHg 93%
    09:00 +11°C° 0,1 mm 4 m/S 751 mmHg 92%
    10:00 +11°C° 0,1 mm 4 m/S 751 mmHg 91%
    11:00 +12°C° 0 mm 5 m/S 751 mmHg 88%
    12:00 +14°C° 0 mm 5 m/S 750 mmHg 86%
    13:00 +15°C° 0 mm 5 m/S 750 mmHg 83%
    14:00 +15°C° 0,1 mm 5 m/S 750 mmHg 85%
    15:00 +14°C° 0,1 mm 5 m/S 750 mmHg 87%
    16:00 +14°C° 0,1 mm 5 m/S 750 mmHg 89%
    17:00 +14°C° 0 mm 5 m/S 750 mmHg 91%
    18:00 +14°C° 0 mm 5 m/S 750 mmHg 92%
    19:00 +13°C° 0 mm 5 m/S 750 mmHg 93%
    20:00 +14°C° 0 mm 5 m/S 750 mmHg 93%
    21:00 +14°C° 0 mm 5 m/S 750 mmHg 93%
    22:00 +14°C° 0 mm 6 m/S 750 mmHg 93%
    23:00 +14°C° 0,1 mm 6 m/S 750 mmHg 93%

    Morgen, 25 Oktober, Mittwoch

    Zeit Temperatur Niederschläge Wind Luftdruck Luftfeuchtigkeit
    00:00 +14°C° 0,1 mm 6 m/S 750 mmHg 92%
    01:00 +14°C° 0,1 mm 6 m/S 750 mmHg 92%
    02:00 +14°C° 0 mm 6 m/S 750 mmHg 91%
    03:00 +14°C° 0 mm 6 m/S 749 mmHg 91%
    04:00 +14°C° 0 mm 6 m/S 749 mmHg 91%
    05:00 +14°C° 0 mm 6 m/S 749 mmHg 91%
    06:00 +14°C° 0 mm 6 m/S 749 mmHg 91%
    07:00 +14°C° 0 mm 6 m/S 749 mmHg 91%
    08:00 +14°C° 0 mm 6 m/S 749 mmHg 89%
    09:00 +14°C° 0 mm 7 m/S 749 mmHg 87%
    10:00 +14°C° 0 mm 7 m/S 749 mmHg 84%
    11:00 +14°C° 0,1 mm 7 m/S 750 mmHg 84%
    12:00 +14°C° 0,1 mm 7 m/S 750 mmHg 84%
    13:00 +14°C° 0,1 mm 6 m/S 750 mmHg 84%
    14:00 +14°C° 0 mm 6 m/S 751 mmHg 85%
    15:00 +14°C° 0 mm 5 m/S 751 mmHg 86%
    16:00 +14°C° 0 mm 5 m/S 751 mmHg 88%
    17:00 +14°C° 0,1 mm 4 m/S 752 mmHg 89%
    18:00 +13°C° 0,1 mm 4 m/S 752 mmHg 91%
    19:00 +13°C° 0,1 mm 3 m/S 752 mmHg 93%
    20:00 +13°C° 0 mm 3 m/S 753 mmHg 94%
    21:00 +12°C° 0 mm 3 m/S 753 mmHg 95%
    22:00 +13°C° 0 mm 2 m/S 753 mmHg 96%
    23:00 +13°C° 0 mm 2 m/S 753 mmHg 96%

    übermorgen, 26 Oktober, Donnerstag

    Zeit Temperatur Niederschläge Wind Luftdruck Luftfeuchtigkeit
    00:00 +12°C° 0 mm 2 m/S 753 mmHg 96%
    01:00 +12°C° 0 mm 2 m/S 753 mmHg 96%
    02:00 +12°C° 0,1 mm 2 m/S 753 mmHg 96%
    03:00 +12°C° 0,1 mm 2 m/S 753 mmHg 96%
    04:00 +12°C° 0,1 mm 2 m/S 753 mmHg 96%
    05:00 +12°C° 0,1 mm 2 m/S 753 mmHg 96%
    06:00 +12°C° 0,1 mm 2 m/S 753 mmHg 96%
    07:00 +12°C° 0,1 mm 2 m/S 753 mmHg 96%
    08:00 +13°C° 0,1 mm 2 m/S 753 mmHg 94%
    09:00 +13°C° 0,1 mm 2 m/S 753 mmHg 92%
    10:00 +13°C° 0,1 mm 3 m/S 753 mmHg 90%
    11:00 +14°C° 0,1 mm 3 m/S 753 mmHg 88%
    12:00 +14°C° 0,1 mm 3 m/S 753 mmHg 86%
    13:00 +15°C° 0,1 mm 4 m/S 753 mmHg 84%
    14:00 +16°C° 0 mm 3 m/S 753 mmHg 84%
    15:00 +14°C° 0 mm 3 m/S 753 mmHg 85%
    16:00 +14°C° 0 mm 3 m/S 753 mmHg 85%
    17:00 +13°C° 0 mm 3 m/S 753 mmHg 88%
    18:00 +13°C° 0 mm 3 m/S 752 mmHg 91%
    19:00 +13°C° 0 mm 2 m/S 752 mmHg 94%
    20:00 +13°C° 0 mm 2 m/S 752 mmHg 94%
    21:00 +12°C° 0 mm 2 m/S 752 mmHg 94%
    22:00 +12°C° 0 mm 2 m/S 752 mmHg 94%
    23:00 +11°C° 0 mm 3 m/S 752 mmHg 94%

    27 Oktober, Freitag

    Zeit Temperatur Niederschläge Wind Luftdruck Luftfeuchtigkeit
    00:00 +11°C° 0 mm 3 m/S 752 mmHg 93%
    01:00 +11°C° 0 mm 3 m/S 751 mmHg 92%
    02:00 +11°C° 0,4 mm 3 m/S 751 mmHg 92%
    03:00 +11°C° 0,4 mm 3 m/S 751 mmHg 92%
    04:00 +11°C° 0,4 mm 3 m/S 750 mmHg 92%
    05:00 +10°C° 0,6 mm 3 m/S 750 mmHg 92%
    06:00 +10°C° 0,6 mm 3 m/S 750 mmHg 92%
    07:00 +10°C° 0,6 mm 4 m/S 750 mmHg 92%
    08:00 +10°C° 0,2 mm 4 m/S 750 mmHg 89%
    09:00 +10°C° 0,2 mm 5 m/S 750 mmHg 86%
    10:00 +10°C° 0,2 mm 6 m/S 750 mmHg 83%
    11:00 +10°C° 0,3 mm 6 m/S 750 mmHg 79%
    12:00 +11°C° 0,3 mm 7 m/S 750 mmHg 76%
    13:00 +11°C° 0,3 mm 7 m/S 750 mmHg 73%
    14:00 +11°C° 0,1 mm 7 m/S 750 mmHg 73%
    15:00 +10°C° 0,1 mm 6 m/S 750 mmHg 73%
    16:00 +10°C° 0,1 mm 5 m/S 750 mmHg 74%
    17:00 +9°C° 0 mm 5 m/S 751 mmHg 78%
    18:00 +8°C° 0 mm 5 m/S 751 mmHg 81%
    19:00 +7°C° 0 mm 5 m/S 751 mmHg 85%
    20:00 +7°C° 0 mm 4 m/S 751 mmHg 86%
    21:00 +7°C° 0 mm 4 m/S 751 mmHg 87%
    22:00 +7°C° 0 mm 4 m/S 752 mmHg 88%
    23:00 +7°C° 0 mm 4 m/S 752 mmHg 89%

    28 Oktober, Samstag

    Zeit Temperatur Niederschläge Wind Luftdruck Luftfeuchtigkeit
    00:00 +8°C° 0 mm 3 m/S 752 mmHg 89%
    01:00 +8°C° 0 mm 3 m/S 752 mmHg 89%
    02:00 +8°C° 0 mm 3 m/S 751 mmHg 90%
    03:00 +8°C° 0 mm 3 m/S 751 mmHg 90%
    04:00 +7°C° 0 mm 3 m/S 751 mmHg 91%
    05:00 +7°C° 0,1 mm 4 m/S 750 mmHg 90%
    06:00 +7°C° 0,1 mm 4 m/S 750 mmHg 90%
    07:00 +7°C° 0,1 mm 4 m/S 750 mmHg 89%
    08:00 +7°C° 0,1 mm 4 m/S 749 mmHg 85%
    09:00 +7°C° 0,1 mm 5 m/S 749 mmHg 82%
    10:00 +8°C° 0,1 mm 5 m/S 749 mmHg 78%
    11:00 +8°C° 0 mm 5 m/S 748 mmHg 76%
    12:00 +8°C° 0 mm 6 m/S 747 mmHg 75%
    13:00 +8°C° 0 mm 6 m/S 747 mmHg 73%
    14:00 +8°C° 0 mm 6 m/S 746 mmHg 74%
    15:00 +8°C° 0 mm 6 m/S 745 mmHg 75%
    16:00 +8°C° 0 mm 5 m/S 744 mmHg 76%
    17:00 +8°C° 0 mm 5 m/S 744 mmHg 78%
    18:00 +8°C° 0 mm 5 m/S 743 mmHg 80%
    19:00 +7°C° 0 mm 5 m/S 743 mmHg 82%
    20:00 +7°C° 0,1 mm 6 m/S 742 mmHg 84%
    21:00 +7°C° 0,1 mm 6 m/S 742 mmHg 85%
    22:00 +7°C° 0,1 mm 6 m/S 742 mmHg 86%
    23:00 +7°C° 0,3 mm 6 m/S 741 mmHg 84%

    29 Oktober, Sonntag

    Zeit Temperatur Niederschläge Wind Luftdruck Luftfeuchtigkeit
    00:00 +7°C° 0,3 mm 6 m/S 741 mmHg 82%
    01:00 +7°C° 0,3 mm 6 m/S 741 mmHg 80%
    02:00 +5°C° 0,2 mm 6 m/S 741 mmHg 79%
    03:00 +5°C° 0,2 mm 6 m/S 741 mmHg 79%
    04:00 +4°C° 0,2 mm 6 m/S 741 mmHg 78%
    05:00 +4°C° 0,1 mm 6 m/S 742 mmHg 79%
    06:00 +4°C° 0,1 mm 6 m/S 742 mmHg 79%
    07:00 +5°C° 0,1 mm 5 m/S 742 mmHg 80%
    08:00 +5°C° 0,2 mm 6 m/S 743 mmHg 76%
    09:00 +5°C° 0,2 mm 6 m/S 744 mmHg 73%
    10:00 +6°C° 0,2 mm 7 m/S 744 mmHg 69%
    11:00 +8°C° 0,1 mm 7 m/S 745 mmHg 65%
    12:00 +8°C° 0,1 mm 7 m/S 745 mmHg 61%
    13:00 +9°C° 0,1 mm 7 m/S 745 mmHg 58%
    14:00 +8°C° 0,1 mm 6 m/S 746 mmHg 61%
    15:00 +8°C° 0,1 mm 6 m/S 746 mmHg 64%
    16:00 +7°C° 0,1 mm 5 m/S 746 mmHg 67%
    17:00 +7°C° 0 mm 5 m/S 747 mmHg 69%
    18:00 +6°C° 0 mm 5 m/S 747 mmHg 71%
    19:00 +6°C° 0 mm 4 m/S 748 mmHg 74%
    20:00 +6°C° 0 mm 4 m/S 748 mmHg 75%
    21:00 +6°C° 0 mm 4 m/S 748 mmHg 77%
    22:00 +6°C° 0 mm 4 m/S 748 mmHg 78%
    23:00 +6°C° 0 mm 4 m/S 748 mmHg 80%

    30 Oktober, Montag

    Zeit Temperatur Niederschläge Wind Luftdruck Luftfeuchtigkeit
    00:00 +5°C° 0 mm 4 m/S 748 mmHg 83%
    01:00 +5°C° 0 mm 4 m/S 748 mmHg 85%
    02:00 +5°C° 0 mm 4 m/S 748 mmHg 85%
    03:00 +6°C° 0 mm 4 m/S 748 mmHg 85%
    04:00 +6°C° 0 mm 4 m/S 748 mmHg 85%
    05:00 +6°C° 0,2 mm 4 m/S 748 mmHg 87%
    06:00 +6°C° 0,2 mm 4 m/S 748 mmHg 88%
    07:00 +6°C° 0,2 mm 5 m/S 748 mmHg 89%
    08:00 +7°C° 0,1 mm 5 m/S 748 mmHg 89%
    09:00 +7°C° 0,1 mm 5 m/S 748 mmHg 89%
    10:00 +7°C° 0,1 mm 5 m/S 748 mmHg 89%
    11:00 +8°C° 0,3 mm 5 m/S 749 mmHg 90%
    12:00 +8°C° 0,3 mm 5 m/S 749 mmHg 90%
    13:00 +8°C° 0,3 mm 5 m/S 749 mmHg 90%
    14:00 +10°C° 0,1 mm 4 m/S 749 mmHg 90%
    15:00 +10°C° 0,1 mm 4 m/S 749 mmHg 89%
    16:00 +10°C° 0,1 mm 4 m/S 749 mmHg 89%
    17:00 +10°C° 0,1 mm 3 m/S 750 mmHg 91%
    18:00 +9°C° 0,1 mm 3 m/S 750 mmHg 93%
    19:00 +9°C° 0,1 mm 3 m/S 751 mmHg 95%
    20:00 +9°C° 0 mm 3 m/S 751 mmHg 95%
    21:00 +9°C° 0 mm 3 m/S 751 mmHg 95%
    22:00 +9°C° 0 mm 3 m/S 752 mmHg 96%
    23:00 +8°C° 0 mm 3 m/S 752 mmHg 96%
    Mehr zeigen